Location: Poughquag
(41.6090°N, 73.6820°W)
Time: 09:00:34
(UTC-05:00)

Altair - Pass Details

Date: 29 November 2023
Orbit: 1501 x 1682 km, 47.2° (Epoch: 02 March)

Event Time Altitude Azimuth Distance (km) Brightness Sun altitude
Rises 12:35:16 0° 277° (W) 4,730 10.1 25.7°
Reaches altitude 10° 12:38:27 10° 281° (W) 3,724 9.6 25.6°
Maximum altitude 12:47:43 62° 1° (N) 1,676 7.8 25.1°
Drops below altitude 10° 12:56:48 10° 82° (E) 3,652 9.3 24.6°
Sets 12:59:52 0° 86° (E) 4,634 9.8 24.4°
